Regional Weather Roundup
Issued by NWS Northern Indiana

Home | Current Version | Previous Version | Graphics & Text | Print | Product List | Glossary On
Versions: 1 2 3 4 5 6 7 8 9 10 11 12 13 14 15 16 17 18 19 20 21 22 23 24 25 26 27 28 29 30 31 32 33 34 35 36 37 38 39 40 41 42 43 44 45 46 47 48 49 50
000
ASUS43 KIWX 241600
RWRIWX

KIWX WEATHER ROUNDUP
NATIONAL WEATHER SERVICE NORTHERN INDIANA
1100 AM EST FRI NOV 24 2017

NOTE: "FAIR" INDICATES FEW OR NO CLOUDS BELOW 12,000 FEET WITH NO
SIGNIFICANT WEATHER AND/OR OBSTRUCTIONS TO VISIBILITY.

* THESE STATIONS ARE NOT UNDER NWS QUALITY CONTROL. THEY ALSO MAY NOT
  REPORT WEATHER SUCH AS PRECIPITATION OR FOG.

INZ001>027-241700-
NORTHERN INDIANA

CITY           SKY/WX    TMP DP  RH WIND       PRES   REMARKS
GARY*          MOSUNNY   48  28  46 SW9G25    29.75F
MICHIGAN CITY* SUNNY     46  30  53 S15G23    29.77S
KNOX*          SUNNY     45  30  57 S13       29.80F
SOUTH BEND     SUNNY     45  30  55 S12       29.79F
ELKHART*       SUNNY     45  28  53 S9        29.79F
GOSHEN         SUNNY     44  28  53 S16       29.80F
MONTICELLO*    SUNNY     42  29  60 S9        29.82F
WARSAW*        SUNNY     43  30  61 S8        29.82F
AUBURN*        SUNNY     45  28  53 S9        29.83F
FORT WAYNE     MOSUNNY   45  31  58 S14       29.85F
PERU/GRISSOM   SUNNY     42  30  62 S10       29.83F

$$
INZ028>050-241700-
CENTRAL INDIANA

CITY           SKY/WX    TMP DP  RH WIND       PRES   REMARKS
LAFAYETTE      SUNNY     45  31  58 SW9       29.83F
KOKOMO*        SUNNY     42  30  62 S10       29.85F
MUNCIE*        SUNNY     48  27  44 SW10      29.87F
INDIANAPOLIS   MOSUNNY   45  28  51 S12       29.89F

$$
MIZ043>046-050>051-056>058-064>065-071>073-077>080-241700-
SOUTHWEST LOWER MICHIGAN

CITY           SKY/WX    TMP DP  RH WIND       PRES   REMARKS
BATTLE CREEK   SUNNY     46  29  51 SW16      29.77F
BENTON HARBOR  SUNNY     47  28  47 S14G21    29.74F
COLDWATER*     SUNNY     47  25  43 SW17      29.79S
HILLSDALE*     SUNNY     43  27  52 S15G21    29.78F
HOLLAND        SUNNY     50  32  50 SW17G24   29.70F
GRAND RAPIDS   PTSUNNY   47  32  56 S15       29.70F
KALAMAZOO      SUNNY     46  27  47 S13       29.76F
STURGIS*       SUNNY     44  30  58 SW16      29.79S
THREE RIVERS*  FAIR      46  29  51 SW14      29.79S

$$
OHZ001>008-015>018-024>025-241700-
NORTHWEST OHIO

CITY           SKY/WX    TMP DP  RH WIND       PRES   REMARKS
DEFIANCE       SUNNY     43  29  57 S14       29.85F
FINDLAY        SUNNY     46  27  47 S17       29.87F
TOLEDO EXPRESS SUNNY     45  29  53 S14G21    29.84F
TOLEDO METCALF SUNNY     45  28  51 SW16      29.86F
LIMA           SUNNY     45  27  49 SW12      29.88F

$$
AND FOR LAKE MICHIGAN COASTAL AND OPEN LAKE BUOY OBSERVATIONS

STATION/POSITION TEMP    WIND        PRES    VSBY  WAVE
                 AIR SEA DIR/SP/G                  HT/PER
                 (F)     (DEG/KT/KT) (MB)    (MI)  (FT/S)
CALUMET HARBOR    45     180/ 10/ 16 1006.2F
MICHIGAN CITY     44     170/ 15/ 19   N/A
BURNS HARBOR      45     200/ 19/ 26 1007.8F
SAINT JOSEPH      43     180/  7/ 13 1008.8
SOUTH LAKE BUOY   46 47  210/ 23/ 27 1005.3          5/ 5

$$
&&



USA.gov is the U.S. government's official web portal to all federal, state and local government web resources and services.